Starlink 31946

operational
NORAD ID: 59940 Int'l Des: 2024-106 Owner: SPXS Country: US Constellation: starlink
LEOCIRCULAR

Starlink 31946について

説明を読み込み中...

リアルタイム位置

3D地球を読み込み中...

次回通過

高度履歴

Altitude vs Time

uPlot chart will show altitude changes over time

軌道要素

1 59940U 24106U 25257.37739035 .00000908 00000-0 42506-4 0 9996
2 59940 43.0022 248.6266 0001092 270.8086 89.2640 15.27575597 64188
Epoch: Sep 14, 2025 • Age: 26 hours

現在のステータス

高度 495.2 km
速度 7.62 km/s
衛星直下点 -41.98°S, 3.17°E
打ち上げ日 Jun 1, 2024
運用期間 1.2 years
タイプ internet

技術仕様

分類 Payload
質量 730.00 kg
乾燥質量 700.00 kg
総質量 730.00 kg
長さ 0.30 m
直径 4.10 m
スパン 29.00 m
形状 Box + pan
製造者 SPXS
バスタイプ Starlink V2M
フェーズステータス In Orbit
所有者/国 SPXS/US

大規模コンステレーション

Loading constellations...